EXS61M LEIB-EGKK

Flight info

Callsign EXS61M
Flight time N/A
Altitude 38000
Route EPAMA N856 UMURE N863 GIROM DCT GONUP DCT MANAK DCT EPAPU UM184 EKRAS UT507 REVTU UP88 VASUX
Aircraft A21N/M-SDE3FGHIRWY/LB1

Departure

Time N/A
Airport Ibiza Airport (LEIB)

Arrival

Time 2026-05-07 22:18
Airport London Gatwick Airport (EGKK)
Time Latitude Longitude Altitude Speed Heading
2026-05-07 21:27 47.14864 -1.23255 38005 ft 456 kts 346°
2026-05-07 21:28 47.21065 -1.25216 38007 ft 456 kts 346°
2026-05-07 21:28 47.27291 -1.27191 38008 ft 456 kts 346°
2026-05-07 21:29 47.33479 -1.29160 38009 ft 455 kts 346°
2026-05-07 21:29 47.39665 -1.31134 38012 ft 455 kts 346°
2026-05-07 21:30 47.45857 -1.33114 38013 ft 454 kts 346°
2026-05-07 21:30 47.51992 -1.35083 38013 ft 454 kts 346°
2026-05-07 21:31 47.58193 -1.37077 38013 ft 455 kts 346°
2026-05-07 21:31 47.64388 -1.39073 38015 ft 455 kts 346°
2026-05-07 21:32 47.70598 -1.40849 38015 ft 456 kts 350°
2026-05-07 21:32 47.76917 -1.41694 38019 ft 457 kts 355°
2026-05-07 21:33 47.83268 -1.42156 38022 ft 456 kts 355°
2026-05-07 21:33 47.89577 -1.42610 38028 ft 456 kts 355°
2026-05-07 21:34 47.95920 -1.43084 38032 ft 455 kts 355°
2026-05-07 21:34 48.02243 -1.43562 38034 ft 455 kts 355°
2026-05-07 21:35 48.08561 -1.44018 38033 ft 456 kts 356°
2026-05-07 21:35 48.14908 -1.44466 38033 ft 456 kts 356°
2026-05-07 21:36 48.21255 -1.44919 38032 ft 456 kts 355°
2026-05-07 21:36 48.27614 -1.45376 38032 ft 456 kts 355°
2026-05-07 21:37 48.33921 -1.45831 38030 ft 455 kts 355°
2026-05-07 21:37 48.40233 -1.46290 38030 ft 454 kts 355°
2026-05-07 21:38 48.46545 -1.46748 38030 ft 454 kts 356°
2026-05-07 21:38 48.52841 -1.47206 38029 ft 454 kts 356°
2026-05-07 21:39 48.59129 -1.47664 38028 ft 454 kts 356°
2026-05-07 21:39 48.65449 -1.48126 38026 ft 454 kts 356°
2026-05-07 21:40 48.71777 -1.48589 38025 ft 454 kts 356°
2026-05-07 21:40 48.78051 -1.49052 38025 ft 454 kts 356°
2026-05-07 21:41 48.84358 -1.49517 38023 ft 453 kts 356°
2026-05-07 21:41 48.90610 -1.50324 38024 ft 452 kts 351°
2026-05-07 21:42 48.96795 -1.52067 38025 ft 451 kts 347°
2026-05-07 21:42 49.02917 -1.54054 38027 ft 451 kts 346°
2026-05-07 21:43 49.09065 -1.56050 38027 ft 451 kts 347°
2026-05-07 21:43 49.15234 -1.58047 38031 ft 451 kts 347°
2026-05-07 21:44 49.21360 -1.60031 38031 ft 451 kts 347°
2026-05-07 21:44 49.27500 -1.62024 38029 ft 451 kts 347°
2026-05-07 21:45 49.33590 -1.64005 38032 ft 451 kts 347°
2026-05-07 21:45 49.39758 -1.66017 37910 ft 453 kts 346°
2026-05-07 21:46 49.42802 -1.67012 37599 ft 451 kts 346°
2026-05-07 21:46 49.45874 -1.68017 37185 ft 449 kts 346°
2026-05-07 21:46 49.48944 -1.69022 36663 ft 449 kts 346°
2026-05-07 21:46 49.51976 -1.69962 36185 ft 451 kts 348°
2026-05-07 21:47 49.55125 -1.70543 35694 ft 457 kts 354°
2026-05-07 21:47 49.58276 -1.70662 35161 ft 462 kts 359°
2026-05-07 21:47 49.61496 -1.70304 34460 ft 463 kts
2026-05-07 21:47 49.64671 -1.69475 33743 ft 464 kts 11°
2026-05-07 21:48 49.67777 -1.68178 33058 ft 463 kts 16°
2026-05-07 21:48 49.70793 -1.66579 32542 ft 459 kts 18°
2026-05-07 21:48 49.73773 -1.64912 32074 ft 453 kts 18°
2026-05-07 21:48 49.76712 -1.63252 31619 ft 448 kts 18°
2026-05-07 21:49 49.79607 -1.61622 31173 ft 443 kts 18°
2026-05-07 21:49 49.82464 -1.60022 30728 ft 438 kts 18°
2026-05-07 21:49 49.85337 -1.58418 30278 ft 433 kts 18°
2026-05-07 21:49 49.88153 -1.56849 29839 ft 428 kts 18°
2026-05-07 21:50 49.90915 -1.55308 29410 ft 424 kts 18°
2026-05-07 21:50 49.93678 -1.53767 28980 ft 419 kts 18°
2026-05-07 21:50 49.96376 -1.52260 28560 ft 415 kts 18°
2026-05-07 21:50 49.99066 -1.50755 28150 ft 411 kts 17°
2026-05-07 21:51 50.01796 -1.49339 27735 ft 406 kts 15°
2026-05-07 21:51 50.04442 -1.48042 27336 ft 402 kts 15°
2026-05-07 21:51 50.07102 -1.46754 26931 ft 398 kts 15°
2026-05-07 21:51 50.09737 -1.45475 26525 ft 395 kts 15°
2026-05-07 21:52 50.12369 -1.44193 26116 ft 391 kts 15°
2026-05-07 21:52 50.14960 -1.42927 25708 ft 388 kts 15°
2026-05-07 21:52 50.17555 -1.41656 25295 ft 384 kts 15°
2026-05-07 21:52 50.20078 -1.40415 24896 ft 382 kts 15°
2026-05-07 21:53 50.22605 -1.39172 24495 ft 379 kts 15°
2026-05-07 21:53 50.25100 -1.37944 24102 ft 377 kts 15°
2026-05-07 21:53 50.27605 -1.36710 23679 ft 374 kts 15°
2026-05-07 21:53 50.30058 -1.35501 23267 ft 372 kts 15°
2026-05-07 21:54 50.32536 -1.34278 22856 ft 370 kts 17°
2026-05-07 21:54 50.34963 -1.33080 22458 ft 367 kts 17°
2026-05-07 21:54 50.37401 -1.31875 22063 ft 365 kts 17°
2026-05-07 21:54 50.39826 -1.30674 21664 ft 363 kts 17°
2026-05-07 21:55 50.42208 -1.29493 21278 ft 360 kts 17°
2026-05-07 21:55 50.44595 -1.28309 20888 ft 358 kts 17°
2026-05-07 21:55 50.46956 -1.27136 20507 ft 356 kts 17°
2026-05-07 21:55 50.49272 -1.25801 20114 ft 354 kts 24°
2026-05-07 21:56 50.51395 -1.23926 19711 ft 353 kts 34°
2026-05-07 21:56 50.53342 -1.21568 19309 ft 351 kts 39°
2026-05-07 21:56 50.55183 -1.19133 18921 ft 348 kts 40°
2026-05-07 21:56 50.57032 -1.16656 18536 ft 346 kts 40°
2026-05-07 21:57 50.58845 -1.14238 18160 ft 344 kts 40°
2026-05-07 21:57 50.60676 -1.11810 17777 ft 342 kts 40°
2026-05-07 21:57 50.62494 -1.09407 17404 ft 340 kts 40°
2026-05-07 21:57 50.64292 -1.07016 17024 ft 338 kts 41°
2026-05-07 21:58 50.65987 -1.04489 16648 ft 336 kts 46°
2026-05-07 21:58 50.67555 -1.01742 16227 ft 336 kts 50°
2026-05-07 21:58 50.69031 -0.98925 15838 ft 334 kts 51°
2026-05-07 21:58 50.70501 -0.96079 15449 ft 332 kts 51°
2026-05-07 21:59 50.71937 -0.93295 15071 ft 330 kts 51°
2026-05-07 21:59 50.73390 -0.90480 14693 ft 328 kts 51°
2026-05-07 21:59 50.74828 -0.87694 14309 ft 326 kts 51°
2026-05-07 21:59 50.76251 -0.84937 13932 ft 323 kts 51°
2026-05-07 22:00 50.77660 -0.82205 13552 ft 322 kts 51°
2026-05-07 22:00 50.79057 -0.79497 13186 ft 318 kts 51°
2026-05-07 22:00 50.80410 -0.76748 13054 ft 306 kts 58°
2026-05-07 22:00 50.81289 -0.73803 13044 ft 298 kts 73°
2026-05-07 22:01 50.81750 -0.70616 13045 ft 300 kts 80°
2026-05-07 22:01 50.82118 -0.67361 13040 ft 300 kts 80°
2026-05-07 22:01 50.82474 -0.64130 13019 ft 300 kts 80°
2026-05-07 22:01 50.82834 -0.60897 12663 ft 302 kts 80°
2026-05-07 22:02 50.83203 -0.57633 12274 ft 300 kts 80°
2026-05-07 22:02 50.83570 -0.54411 11920 ft 298 kts 79°
2026-05-07 22:02 50.83940 -0.51188 11554 ft 295 kts 79°
2026-05-07 22:02 50.84302 -0.48034 11207 ft 292 kts 79°
2026-05-07 22:03 50.84663 -0.44889 10873 ft 290 kts 79°
2026-05-07 22:03 50.85020 -0.41774 10537 ft 287 kts 79°
2026-05-07 22:03 50.85372 -0.38689 10197 ft 285 kts 79°
2026-05-07 22:03 50.85722 -0.35609 9865 ft 282 kts 79°
2026-05-07 22:04 50.86068 -0.32566 9529 ft 280 kts 80°
2026-05-07 22:04 50.86408 -0.29575 9200 ft 278 kts 80°
2026-05-07 22:04 50.86750 -0.26567 8866 ft 276 kts 80°
2026-05-07 22:04 50.87087 -0.23594 8536 ft 274 kts 80°
2026-05-07 22:05 50.87420 -0.20641 8213 ft 273 kts 80°
2026-05-07 22:05 50.87751 -0.17702 7885 ft 271 kts 80°
2026-05-07 22:05 50.88076 -0.14804 7668 ft 263 kts 81°
2026-05-07 22:05 50.88387 -0.12025 7640 ft 253 kts 81°
2026-05-07 22:06 50.88704 -0.09252 7567 ft 254 kts 78°
2026-05-07 22:06 50.89455 -0.06784 7200 ft 255 kts 45°
2026-05-07 22:06 50.90998 -0.05474 6865 ft 252 kts
2026-05-07 22:06 50.92695 -0.05828 6559 ft 250 kts 333°
2026-05-07 22:07 50.94174 -0.07282 6283 ft 249 kts 325°
2026-05-07 22:07 50.95609 -0.08767 5992 ft 248 kts 327°
2026-05-07 22:07 50.96986 -0.10392 5667 ft 245 kts 310°
2026-05-07 22:07 50.97757 -0.12737 5391 ft 241 kts 285°
2026-05-07 22:08 50.98116 -0.15333 5108 ft 242 kts 280°
2026-05-07 22:08 50.98431 -0.17952 4811 ft 241 kts 281°
2026-05-07 22:08 50.98775 -0.20536 4515 ft 241 kts 282°
2026-05-07 22:08 50.99148 -0.23114 4220 ft 240 kts 283°
2026-05-07 22:09 50.99536 -0.25684 3924 ft 239 kts 284°
2026-05-07 22:09 50.99932 -0.28260 3628 ft 239 kts 284°
2026-05-07 22:09 51.00328 -0.30811 3335 ft 238 kts 284°
2026-05-07 22:09 51.00724 -0.33357 3051 ft 237 kts 284°
2026-05-07 22:10 51.01121 -0.35864 2948 ft 226 kts 285°
2026-05-07 22:10 51.01516 -0.38250 2945 ft 223 kts 285°
2026-05-07 22:10 51.01904 -0.40617 2946 ft 223 kts 285°
2026-05-07 22:10 51.02293 -0.43002 2949 ft 222 kts 285°
2026-05-07 22:11 51.02682 -0.45373 2947 ft 223 kts 285°
2026-05-07 22:11 51.03071 -0.47759 2946 ft 223 kts 285°
2026-05-07 22:11 51.03466 -0.50103 3003 ft 213 kts 289°
2026-05-07 22:11 51.04230 -0.51927 2966 ft 192 kts 322°
2026-05-07 22:12 51.05356 -0.52767 2916 ft 169 kts 352°
2026-05-07 22:12 51.06478 -0.52714 2915 ft 160 kts 17°
2026-05-07 22:12 51.07477 -0.51973 2942 ft 159 kts 34°
2026-05-07 22:12 51.08397 -0.51007 2946 ft 159 kts 36°
2026-05-07 22:13 51.09321 -0.50017 2947 ft 159 kts 36°
2026-05-07 22:13 51.10215 -0.49015 2940 ft 158 kts 48°
2026-05-07 22:13 51.10767 -0.47506 2953 ft 158 kts 71°
2026-05-07 22:13 51.11088 -0.45829 2950 ft 158 kts 76°
2026-05-07 22:14 51.11365 -0.44135 2948 ft 158 kts 77°
2026-05-07 22:14 51.11615 -0.42449 2901 ft 158 kts 78°
2026-05-07 22:14 51.11855 -0.40744 2738 ft 157 kts 78°
2026-05-07 22:14 51.12089 -0.39035 2524 ft 156 kts 78°
2026-05-07 22:15 51.12316 -0.37366 2306 ft 156 kts 78°
2026-05-07 22:15 51.12542 -0.35700 2087 ft 149 kts 78°
2026-05-07 22:15 51.12756 -0.34122 1878 ft 145 kts 78°
2026-05-07 22:15 51.12970 -0.32541 1687 ft 145 kts 78°
2026-05-07 22:16 51.13182 -0.30984 1503 ft 144 kts 78°
2026-05-07 22:16 51.13393 -0.29438 1318 ft 144 kts 79°
2026-05-07 22:16 51.13606 -0.27879 1135 ft 143 kts 77°
2026-05-07 22:16 51.13835 -0.26332 946 ft 143 kts 78°
2026-05-07 22:17 51.14040 -0.24794 726 ft 142 kts 78°
2026-05-07 22:17 51.14239 -0.23259 543 ft 142 kts 79°
2026-05-07 22:17 51.14450 -0.21743 338 ft 140 kts 77°
2026-05-07 22:17 51.14649 -0.20236 221 ft 137 kts 77°
2026-05-07 22:18 51.14835 -0.18873 199 ft 107 kts 77°
2026-05-07 22:18 51.15013 -0.17572 199 ft 25 kts 78°
2026-05-07 22:18 51.15059 -0.17358 199 ft 17 kts 63°
2026-05-07 22:19 51.15102 -0.17245 199 ft 11 kts 52°
2026-05-07 22:19 51.15170 -0.17225 199 ft 11 kts 329°
2026-05-07 22:19 51.15246 -0.17242 199 ft 11 kts 12°
2026-05-07 22:19 51.15329 -0.17241 199 ft 12 kts 356°
2026-05-07 22:20 51.15390 -0.17177 199 ft 9 kts 59°
2026-05-07 22:20 51.15408 -0.17103 199 ft 5 kts 75°
2026-05-07 22:20 51.15422 -0.17078 199 ft 1 kts 21°
2026-05-07 22:20 51.15434 -0.17074 199 ft 2 kts
2026-05-07 22:21 51.15448 -0.17076 199 ft 2 kts 353°
2026-05-07 22:21 51.15461 -0.17080 199 ft 1 kts 350°
2026-05-07 22:21 51.15462 -0.17080 199 ft 0 kts 350°